Home > Weather > Reston > Past weeks

Flag for USA Weather for the Past 2 Weeks in Reston, Virginia, USA

Now
54 °F

Fog.


Feels Like: 52 °F
Forecast: 54 / 79 °F
Wind: 7 mph from East

Location: Washington-Dulles International Airport

Current Time: May 2, 2016 at 6:51:17 AM

Latest Report: May 2, 2016 at 6:02 AM


Visibility: 1 mi

Pressure: 29.95 "Hg

Humidity: 100%

Dew Point: 54 °F

Location of RestonLocation

Historic Weather in Reston — Graph

°F

Reston Temperature Yesterday

Maximum temperature yesterday: 58 °F (at 3:52 PM)
Minimum temperature yesterday: 51 °F (at 4:55 AM)
Average temperature yesterday: 54 °F

High & Low Weather Summary for the Past Weeks

 TemperatureHumidityPressure
High84 °F (Apr 26, 2:52 PM)100% (May 2, 4:52 AM)30.47 "Hg (May 2, 4:52 AM)
Low39 °F (Apr 17, 6:52 AM)17% (Apr 20, 2:52 PM)29.69 "Hg (Apr 26, 3:52 PM)
Average60 °F64%30.04 "Hg
* Reported Apr 17 4:52 AM — May 2 4:52 AM, Reston, Weather by CustomWeather, © 2016

Note: Actual official high and low records may vary slightly from our data, if they occured in-between our weather recording intervals... More about our weather records

Advertising

Reston Weather History for the Previous 24 Hours

Scroll right to see more
 ConditionsComfort  
Time TempWeatherWind HumidityBarometerVisibility
4:52 AM
Mon, May 2
54 °FFog.3 mph100%29.95 "Hg1 mi
3:52 AM55 °FFog.No wind96%29.95 "Hg1 mi
2:52 AM55 °FFog.5 mph96%29.96 "Hg4 mi
1:52 AM55 °FLow clouds.3 mph96%29.99 "Hg7 mi
12:52 AM55 °FLight rain. Mostly cloudy.3 mph96%30.00 "Hg7 mi
11:52 PM
Sun, May 1
55 °FThunderstorms. Fog.6 mph96%29.99 "Hg2 mi
10:52 PM55 °FThunderstorms. Fog.No wind96%30.06 "Hg1 mi
9:52 PM55 °FFog.5 mph96%30.04 "Hg1 mi
8:52 PM56 °FFog.8 mph93%30.03 "Hg1 mi
7:52 PM57 °FFog.8 mph93%30.03 "Hg1 mi
6:52 PM58 °FLow clouds.6 mph90%30.00 "Hg10 mi
5:52 PM58 °FLow clouds.6 mph90%30.00 "Hg10 mi
4:52 PM58 °FLow clouds.6 mph87%30.01 "Hg10 mi
3:52 PM58 °FLow clouds.6 mph87%30.01 "Hg10 mi
2:52 PM57 °FLow clouds.6 mph90%30.04 "Hg10 mi
1:52 PM56 °FLow clouds.8 mph90%30.05 "Hg10 mi
12:52 PM55 °FLow clouds.6 mph93%30.07 "Hg10 mi
11:52 AM55 °FLight rain. Low clouds.12 mph93%30.06 "Hg10 mi
10:52 AM53 °FLight rain. Fog.9 mph96%30.08 "Hg3 mi
9:52 AM53 °FLight rain. Low clouds.9 mph93%30.10 "Hg8 mi
8:52 AM52 °FLight rain. Fog.8 mph93%30.11 "Hg5 mi
7:52 AM51 °FLight rain. Fog.8 mph96%30.11 "Hg5 mi
6:52 AM51 °FLight rain. Low clouds.7 mph92%30.10 "Hg8 mi
Weather by CustomWeather, © 2016

See weather overviewHow to use our weather pages